Wind_Speed
7 4 6 5 5 6 4 4 5 4 7 6 9 17 13 7 6 6 11 24 24 26 27 27 27 27 27 28 29 29 27 28 28 28 28 28 28 27 25 25 23 24 25 25 24 23 23 22 21
10 6 3 3 5 5 2 4 9 6 10 16 10 6 9 5 7 3 15 22 23 24 27 26 26 26 26 27 29 28 27 26 28 28 27 27 28 27 27 26 26 25 24 24 25 26 25 24 24
12 5 4 4 4 4 5 6 6 4 4 3 6 7 5 5 8 4 17 19 21 25 27 25 26 25 26 28 28 29 29 28 28 29 27 28 27 28 29 28 27 27 26 25 25 25 24 25 25
7 5 5 6 9 5 7 8 8 6 8 10 11 9 6 15 3 10 14 18 22 25 27 28 28 26 25 28 30 30 30 29 31 31 30 29 27 28 29 28 27 26 26 26 26 28 26 24 25
2 3 5 5 6 4 5 6 8 8 6 4 3 4 5 7 9 11 15 19 23 25 28 31 28 26 24 29 30 31 34 31 32 30 32 30 27 27 29 28 28 27 27 27 27 26 27 26 27
4 4 5 4 4 3 4 8 8 12 9 5 8 6 3 6 11 14 15 18 23 26 29 30 31 27 28 27 29 29 33 32 31 32 33 30 28 28 29 29 28 29 28 27 28 26 25 27 28
3 5 5 7 7 3 3 5 5 6 6 5 6 5 4 8 13 14 17 20 25 29 32 32 33 30 26 30 29 28 32 32 33 33 34 31 28 28 28 27 28 29 29 27 26 28 27 27 26
4 4 7 5 8 5 2 4 4 8 4 2 4 4 3 6 12 11 16 21 25 28 29 30 31 31 26 32 30 29 30 31 32 34 37 32 31 30 31 29 28 27 28 28 27 26 28 28 26
3 5 4 7 8 6 5 6 5 4 7 5 5 5 10 13 11 15 18 23 27 29 31 30 29 31 32 27 29 30 29 30 36 38 40 34 34 34 32 30 30 27 26 27 27 26 26 26 23
5 5 2 2 8 10 6 8 8 6 5 5 6 12 15 13 14 16 19 21 24 28 29 30 29 29 33 28 33 29 30 35 35 39 43 39 31 32 32 32 30 31 29 26 26 26 26 24 21
3 4 2 7 9 11 10 6 3 13 5 2 7 7 12 12 13 15 16 17 20 23 25 27 27 25 27 29 26 27 30 33 36 40 43 40 33 33 33 34 34 30 32 31 28 30 27 23 18
7 7 6 2 6 8 5 5 5 4 6 8 9 11 11 11 12 13 15 16 18 20 22 24 26 25 23 26 27 30 30 32 34 35 37 41 34 33 33 31 32 35 33 32 28 27 27 22 17
8 3 6 8 11 8 11 6 7 5 7 13 13 12 9 10 10 10 11 13 14 18 20 22 23 24 23 25 26 29 32 33 34 37 37 35 38 37 33 30 30 34 35 32 30 25 26 22 18
5 9 6 8 8 4 9 4 5 5 7 8 8 7 8 9 8 8 9 11 13 14 18 19 21 21 22 22 23 26 29 30 33 34 35 35 33 34 35 29 31 32 35 33 31 25 23 21 17
9 9 7 4 3 4 10 2 3 7 8 8 8 7 7 8 7 6 7 10 11 12 14 17 20 20 21 24 25 25 29 25 33 32 34 35 36 34 34 26 31 35 34 31 33 29 24 22 17
5 5 4 4 5 5 3 4 5 9 9 9 8 7 6 6 7 6 7 7 8 10 13 15 18 21 21 23 25 25 27 27 29 32 34 34 36 37 33 26 28 33 33 32 33 34 23 20 14
1 3 4 2 6 4 4 3 6 9 9 9 8 8 7 6 7 6 5 6 6 9 11 13 16 19 21 21 23 23 24 25 28 30 31 32 33 35 34 31 26 32 31 33 32 32 28 20 16
7 4 3 5 5 5 5 3 6 9 9 11 10 9 9 8 7 7 6 3 4 6 9 11 14 17 19 19 22 23 23 24 26 27 28 30 32 33 36 33 32 30 30 30 35 33 32 23 18
5 5 6 2 2 5 7 6 10 9 8 9 9 9 8 8 10 9 6 3 5 5 8 11 13 16 18 21 24 24 25 26 26 29 28 30 31 32 34 35 33 33 27 29 31 32 30 27 18
2 5 3 2 2 2 5 9 9 12 11 10 11 9 9 7 7 9 7 7 7 6 6 10 11 13 16 18 19 18 20 22 23 28 28 27 29 30 32 34 34 31 30 31 31 33 29 23 29
3 6 5 3 2 2 2 8 7 9 7 8 9 9 8 10 9 8 10 9 7 7 7 9 9 12 14 16 19 21 21 23 24 28 27 27 27 28 31 32 34 33 29 28 29 29 31 24 25
4 3 6 8 5 3 4 5 5 11 15 13 9 9 9 9 8 10 11 8 8 6 6 8 8 11 13 15 19 22 22 19 23 25 26 28 28 28 31 31 32 33 32 30 29 27 26 26 24
3 2 6 4 2 3 2 2 7 6 11 17 12 11 10 9 9 9 11 11 9 8 8 6 6 10 12 15 18 20 20 19 21 25 26 28 29 29 32 30 31 32 32 31 29 30 25 23 22
6 6 8 5 2 2 4 6 6 6 11 7 9 12 12 10 9 15 13 14 12 8 7 5 7 10 12 14 16 18 19 19 21 24 27 28 29 30 31 31 30 30 31 30 29 27 27 24 22
3 5 3 3 3 6 3 4 9 7 8 11 19 16 13 13 10 10 16 16 12 9 7 5 6 9 10 13 15 16 17 18 19 22 24 26 28 30 31 30 30 29 27 28 28 27 27 27 22
6 5 5 7 3 4 4 6 7 5 8 7 12 15 15 12 11 9 18 17 13 10 7 6 6 7 9 11 13 14 16 18 19 20 22 23 24 25 27 28 28 28 27 27 28 26 26 28 24
5 4 4 6 2 3 4 7 10 3 2 4 11 16 16 13 13 11 20 18 15 11 8 7 6 6 8 10 11 13 15 18 20 21 23 25 25 25 26 25 27 28 26 27 28 27 27 26 27
2 4 3 3 2 4 4 4 7 7 9 7 11 17 15 13 12 12 20 20 16 13 10 7 5 5 6 8 11 13 16 18 20 22 24 24 25 25 24 23 24 26 25 28 28 29 29 26 28
2 2 1 2 4 5 2 6 7 11 13 16 15 16 18 16 14 12 19 21 18 15 11 9 4 3 6 8 11 14 17 18 19 21 22 23 23 22 21 21 22 23 24 27 29 27 28 27 28
4 6 6 4 5 3 3 7 3 2 7 12 14 14 14 14 14 16 20 23 20 17 13 10 5 2 4 8 11 12 13 15 19 21 22 22 22 21 19 19 20 21 21 26 27 26 27 27 27
Wind_Direction
330 356 3 36 58 64 40 52 106 64 74 67 77 87 101 59 54 130 345 360 356 354 356 1 2 3 4 4 3 4 5 3 2 3 4 3 359 355 354 350 349 351 348 343 340 340 340 336 305
339 20 55 73 93 87 29 88 79 93 120 125 84 82 51 66 22 70 11 3 357 1 3 7 4 7 10 9 11 10 7 5 4 4 4 3 0 356 355 354 349 346 343 344 341 335 336 332 322
327 333 68 77 93 136 138 128 123 86 83 121 109 57 66 335 46 21 10 4 2 12 12 12 9 11 14 13 14 14 11 8 3 360 1 2 2 1 359 354 349 347 343 342 341 337 336 331 321
345 21 34 73 89 12 113 156 132 96 34 60 112 75 83 40 35 27 12 10 16 19 19 18 13 15 19 17 14 16 16 13 12 12 5 1 2 1 359 356 354 348 346 342 340 335 339 333 327
340 64 61 82 68 80 54 104 125 109 102 107 124 93 98 36 44 40 27 23 23 21 22 24 17 16 17 15 14 17 14 14 11 9 6 3 2 2 1 358 356 352 348 346 340 333 328 324 320
19 92 85 97 93 64 52 98 87 86 100 84 82 98 75 37 50 48 40 33 28 26 26 27 26 30 26 16 20 19 15 12 13 11 9 7 3 2 359 356 357 355 350 348 343 338 331 327 320
103 83 134 130 131 77 86 59 74 87 65 8 169 99 129 50 58 53 45 39 33 31 29 29 27 28 26 16 23 18 14 13 10 8 7 8 7 3 358 357 357 353 351 350 347 341 335 329 324
105 85 123 145 159 183 128 83 119 62 56 261 37 132 112 63 64 62 48 41 36 34 31 32 30 28 27 18 23 18 17 13 10 7 6 5 6 2 4 3 358 354 351 350 350 347 344 336 331
69 79 148 171 146 159 138 97 20 26 76 50 62 98 112 85 70 58 44 36 32 31 29 26 30 28 22 26 24 18 19 19 17 14 14 6 4 4 360 358 358 355 354 351 351 350 350 347 338
67 92 89 205 150 144 115 120 132 87 81 74 77 87 93 85 72 58 42 34 30 27 25 25 30 30 21 29 23 25 20 21 19 17 17 13 4 359 358 3 353 354 357 352 350 349 354 354 347
49 116 140 13 100 114 128 73 40 129 59 144 146 123 98 84 71 63 49 39 32 29 28 25 27 33 22 29 22 28 20 19 18 17 16 14 6 3 360 357 359 346 352 355 348 350 354 352 349
94 54 81 42 86 90 94 87 67 33 137 132 120 115 104 87 65 58 47 36 31 30 29 27 28 35 29 22 26 27 26 22 19 16 13 13 9 0 359 355 353 358 349 346 348 343 346 350 348
72 78 51 89 81 75 82 88 125 101 118 112 107 98 98 93 82 66 56 42 35 33 30 29 28 31 27 23 15 13 16 15 15 13 13 12 10 8 359 353 353 353 354 349 342 342 342 345 345
107 87 85 65 82 92 110 137 85 204 145 133 119 120 109 102 96 72 58 44 37 34 33 25 26 25 22 19 17 15 13 13 12 10 10 12 9 6 6 358 356 352 358 352 342 342 338 339 339
105 77 42 102 119 127 123 120 132 172 154 146 137 141 132 127 107 90 66 51 34 35 37 29 20 20 21 18 18 20 17 16 9 13 12 13 15 9 5 357 1 357 355 359 352 344 340 336 336
79 85 117 241 140 169 103 251 194 179 154 172 166 165 156 148 131 107 74 55 36 40 40 29 18 19 18 19 16 19 18 14 12 12 13 13 13 12 9 358 356 359 358 359 358 348 333 336 342
284 181 138 227 197 153 165 235 202 175 170 186 185 183 172 168 147 127 89 60 39 44 40 32 21 20 18 18 15 19 19 13 8 6 9 12 13 13 13 13 354 1 359 359 1 349 346 335 332
189 207 147 175 223 155 195 226 203 195 181 189 192 188 181 173 176 154 130 73 75 52 39 31 24 20 18 17 16 17 16 12 7 5 7 10 12 11 13 14 13 9 1 357 2 355 349 337 325
173 146 130 131 105 157 222 218 207 213 204 194 197 189 186 176 168 163 155 132 120 66 43 34 28 19 19 16 13 14 9 5 5 1 7 10 9 11 13 15 16 13 5 356 1 1 353 348 323
28 125 98 55 156 158 227 241 207 206 215 193 190 191 184 169 152 162 140 131 108 74 46 39 39 21 21 15 14 16 12 9 6 3 7 10 7 10 13 16 15 14 7 2 1 5 359 342 353
37 158 180 158 143 347 314 284 197 227 206 198 199 186 173 166 161 151 122 117 108 80 59 54 36 28 25 15 16 16 14 11 6 4 7 9 8 8 12 16 18 17 9 4 356 5 3 349 347
148 321 131 132 120 210 132 274 239 208 208 211 195 169 169 164 147 147 135 125 119 100 87 65 37 31 28 21 25 26 20 9 359 1 5 8 12 10 12 15 17 17 14 6 4 1 2 2 354
166 117 126 126 104 69 209 77 276 159 220 219 197 181 181 173 154 147 140 138 127 118 97 79 45 39 30 27 28 26 20 10 0 4 4 7 8 11 13 14 15 15 14 12 7 4 359 6 2
138 72 43 41 59 353 211 170 268 200 223 209 196 195 175 166 154 150 141 142 130 120 105 85 57 46 29 28 26 24 20 8 3 6 4 3 5 7 11 13 13 13 12 13 8 1 5 2 2
52 90 13 349 357 221 339 168 246 232 230 199 197 189 170 165 151 148 147 147 140 130 120 89 64 47 30 26 29 22 14 7 5 4 1 360 359 3 5 9 12 10 10 13 13 8 2 7 358
186 163 160 204 197 256 355 234 251 214 246 197 188 174 157 162 156 154 156 156 150 145 138 119 81 52 30 25 26 14 10 2 0 357 354 355 354 355 359 5 10 11 11 15 17 10 5 359 7
195 197 164 103 57 56 225 272 297 206 143 144 153 158 167 164 158 153 155 161 157 157 149 128 101 63 34 25 18 6 360 353 349 346 342 342 343 346 352 1 5 10 13 15 15 14 3 359 5
178 165 84 352 168 264 279 268 249 247 212 181 172 174 169 163 159 156 154 160 159 161 153 135 104 65 30 18 12 357 348 343 341 342 342 339 336 338 346 355 2 6 12 15 16 14 8 360 1
148 233 21 141 160 188 241 253 221 230 191 198 188 182 172 170 164 160 159 165 164 160 157 140 123 62 25 5 2 350 346 348 352 355 356 353 348 345 346 354 358 5 9 12 15 8 7 4 359
194 194 162 137 234 235 147 260 227 228 224 194 191 179 175 167 161 159 159 163 165 160 155 148 142 83 14 356 359 358 360 2 1 1 2 359 359 -0 357 356 2 7 13 15 6 3 10 6 359
Height
788 787 788 789 829 846 858 860 848 850 854 859 856 861 877 879 880 896 884 880 876 871 866 861 858 855 850 844 839 834 831 826 823 819 816 812 808 805 801 798 795 790 787 785 781 778 774 773 771
791 789 789 803 848 870 871 854 857 851 853 853 859 865 874 884 878 882 882 880 875 871 866 861 858 854 851 846 841 837 832 829 824 820 817 814 811 807 802 797 796 791 788 785 779 776 773 770 768
792 794 802 824 851 865 866 852 853 850 847 847 864 868 877 887 884 885 884 880 876 871 867 862 859 855 851 847 842 838 834 830 825 821 818 814 810 807 802 799 795 792 788 784 780 776 770 768 766
794 796 809 845 855 850 849 848 846 849 851 854 865 881 884 887 886 886 883 880 876 872 868 863 859 855 852 848 843 839 836 832 827 822 818 814 810 808 804 799 795 793 787 784 778 774 768 767 763
796 807 843 858 853 847 842 843 844 852 859 860 861 884 888 887 887 885 882 880 877 873 868 863 860 857 853 849 844 839 836 832 829 825 820 815 812 807 804 800 795 791 786 781 779 774 771 765 760
805 814 857 868 857 847 843 843 847 856 863 865 872 880 890 888 886 884 882 881 878 873 869 865 861 857 854 851 846 842 838 835 831 827 821 817 813 808 804 799 794 790 786 781 778 774 769 762 756
805 829 852 861 861 853 847 844 854 862 865 870 869 881 889 888 887 885 884 881 878 874 870 866 862 859 856 853 848 846 841 836 831 826 820 816 813 808 804 800 794 790 786 781 777 771 765 759 753
806 826 846 851 859 858 847 851 858 860 869 869 870 883 890 888 887 885 883 881 878 874 870 866 864 861 857 853 850 848 843 840 835 829 822 817 813 808 803 798 794 790 785 780 775 770 763 757 749
799 836 850 848 853 852 849 856 863 868 871 874 878 881 886 886 886 885 884 881 878 875 872 870 866 862 858 854 850 847 845 841 835 830 824 817 812 808 804 800 793 790 785 781 774 769 763 756 751
814 839 834 832 840 849 851 854 864 874 877 883 883 884 885 885 885 885 883 881 879 877 874 871 867 864 860 856 852 849 846 842 838 833 828 821 816 810 805 799 796 790 784 780 775 770 763 757 753
818 839 834 837 835 840 852 861 861 873 881 879 884 885 885 886 886 884 883 883 881 879 876 872 869 865 863 860 857 852 848 844 840 835 829 824 817 811 806 801 797 793 786 780 775 770 765 759 754
834 837 835 839 839 843 854 863 872 872 876 878 881 883 886 887 886 886 885 885 883 881 878 876 872 868 865 863 859 855 850 846 842 839 834 826 821 816 810 806 799 794 787 782 776 771 767 760 756
841 841 841 843 846 854 856 868 873 879 878 879 882 884 885 885 885 886 886 886 884 882 879 876 874 871 868 864 861 856 852 848 845 840 836 831 825 820 813 807 802 795 788 782 777 771 766 761 757
841 845 848 851 853 857 865 872 869 880 878 880 882 883 884 884 885 886 885 884 883 881 879 877 874 872 869 866 862 858 853 849 847 844 840 835 830 823 818 812 805 799 790 784 778 771 768 763 758
846 855 856 857 855 862 863 871 875 876 877 881 882 883 884 884 884 885 884 884 883 882 880 877 875 872 869 867 863 860 856 852 848 845 841 836 831 826 819 814 807 800 792 787 779 772 768 762 758
852 857 870 859 857 861 862 870 873 874 877 881 881 883 883 884 884 884 883 883 883 882 880 878 876 873 870 867 864 860 857 855 852 847 842 837 832 827 820 815 809 803 796 788 781 774 768 763 759
855 864 863 863 858 860 864 868 870 870 873 878 881 881 882 882 882 882 882 884 884 883 880 878 876 873 871 868 864 860 857 853 852 849 844 840 835 830 823 816 810 803 797 791 783 776 770 763 759
861 859 859 864 859 862 865 866 870 869 870 872 875 876 876 877 878 880 881 882 883 882 880 878 876 874 871 869 865 860 855 854 853 850 846 842 837 832 825 818 811 803 800 795 787 779 770 764 760
842 845 855 857 856 858 865 867 868 865 866 870 873 873 874 875 875 878 879 879 880 880 880 878 876 874 871 868 864 860 858 855 854 851 847 842 838 833 827 819 812 806 802 799 791 784 773 767 761
833 850 860 860 855 857 855 858 863 859 856 859 865 868 870 872 874 876 877 878 879 879 879 879 877 875 873 870 865 863 860 858 854 851 847 844 840 835 829 823 816 810 804 798 791 786 777 772 765
849 851 860 853 859 856 856 862 855 851 850 853 856 858 864 867 871 873 875 877 878 878 879 878 876 875 873 871 866 863 861 859 855 852 848 845 841 837 831 824 818 812 806 801 795 789 784 779 770
845 847 852 862 865 875 863 878 849 842 845 845 850 858 862 863 865 869 871 873 876 877 878 877 876 874 873 871 867 863 863 862 859 854 850 846 842 837 831 825 819 815 809 803 799 794 791 785 777
846 846 854 861 862 864 866 888 840 842 848 841 848 853 856 859 862 867 870 872 875 876 877 876 875 874 873 871 867 864 863 864 860 855 851 846 842 838 831 825 821 816 811 806 802 797 793 787 785
848 854 861 873 877 915 865 872 848 849 825 830 839 842 848 854 858 863 868 871 874 875 875 875 873 873 874 871 867 865 865 864 860 855 852 848 844 839 833 827 822 818 813 808 803 800 795 789 786
850 865 921 908 927 893 866 871 836 817 819 818 823 833 842 848 855 860 865 869 871 872 873 874 872 872 871 870 867 866 865 864 861 857 853 850 845 840 835 830 824 819 815 810 804 800 795 790 786
859 859 884 886 893 874 867 869 822 811 812 812 817 827 839 847 851 856 861 865 868 870 871 871 870 871 871 868 866 865 865 865 861 857 854 850 847 843 838 832 826 821 815 810 805 801 797 793 788
853 867 857 902 937 903 857 842 817 812 811 817 823 829 836 843 848 853 857 862 866 869 870 869 868 870 869 867 865 865 863 863 860 856 853 849 846 842 837 832 826 821 817 811 806 803 799 796 790
851 851 869 898 884 899 861 831 812 817 820 820 825 824 832 838 845 849 853 859 863 865 868 867 867 868 868 866 864 865 862 861 859 854 850 847 843 840 836 831 826 822 817 813 808 803 799 796 790
860 866 867 861 863 873 880 841 804 794 806 810 815 817 823 830 837 844 849 854 858 862 865 865 866 867 866 866 864 863 861 859 856 852 849 845 842 838 835 830 827 822 818 814 810 807 802 797 792
846 845 851 872 860 870 874 840 796 796 801 803 809 814 821 827 833 839 846 850 855 859 863 862 864 866 865 865 861 862 861 858 855 851 847 844 840 837 834 830 826 823 819 815 813 809 805 800 795